Flag Weather past 2 weeks in Vallejo, California, U.S.A.

Now
44 °F

Clear.


Feels Like: 42 °F
Forecast: 43 / 61 °F
Wind: 5 mph from North

Location: Napa County Airport

Current Time: Nov 23, 2014 at 3:28:02 AM

Latest Report: Nov 23, 2014 at 2:54 AM


Visibility: 10 mi

Pressure: 30.26 "Hg

Humidity: 93%

Dew point: 42 °F

Location of VallejoLocation

Historic Weather in Vallejo — Graph

°F

Vallejo temperature yesterday

Maximum temperature yesterday: 69 °F (at 1:54 PM)
Minimum temperature yesterday: 40 °F (at 11:54 PM)
Average temperature yesterday: 58 °F

Past Weeks' High & Low Weather Summary

 TemperatureHumidityPressure
High78 °F (Nov 8, 2:54 PM)100% (Nov 8, 1:04 AM)30.24 "Hg (Nov 8, 1:04 AM)
Low32 °F (Nov 17, 6:54 AM)18% (Nov 17, 1:54 PM)29.76 "Hg (Nov 10, 1:54 PM)
Average55 °F78%30.03 "Hg
* Reported Nov 8 1:04 AM — Nov 23 1:54 AM, Vallejo, Weather by CustomWeather, © 2014

Note: Actual official high and low records may vary slightly from our data, if they occured in-between our weather recording intervals... More about our weather records

Advertising

Vallejo weather history for previous 24 hours

 ConditionsComfort  
Time TempWeatherWind HumidityBarometerVisibility
1:54 AM
Nov 23
42 °FClear.9 mph96%30.23 "Hg10 mi
12:54 AM43 °FClear.8 mph97%30.23 "Hg10 mi
11:54 PM
Nov 22
40 °FClear.No wind100%30.23 "Hg10 mi
10:54 PM44 °FClear.No wind93%30.23 "Hg10 mi
9:54 PM43 °FClear.3 mph93%30.22 "Hg10 mi
8:54 PM50 °FClear.3 mph80%30.19 "Hg10 mi
7:54 PM54 °FClear.3 mph69%30.17 "Hg10 mi
6:54 PM54 °FClear.No wind74%30.15 "Hg10 mi
5:54 PM58 °FClear.7 mph65%30.12 "Hg10 mi
4:54 PM60 °FClear.7 mph65%30.10 "Hg10 mi
3:54 PM65 °FSunny.13 mph51%30.08 "Hg10 mi
2:54 PM68 °FSunny.13 mph49%30.07 "Hg10 mi
1:54 PM69 °FSunny.16 mph66%30.05 "Hg10 mi
12:54 PM68 °FPartly sunny.14 mph70%30.05 "Hg10 mi
11:54 AM66 °FMostly cloudy.14 mph78%30.05 "Hg10 mi
10:54 AM65 °FPassing clouds.14 mph87%30.04 "Hg10 mi
9:54 AM62 °FPartly sunny.9 mph96%30.03 "Hg10 mi
8:54 AM59 °FFog.16 mph100%30.01 "Hg4 mi
7:54 AM58 °FLight rain. Fog.16 mph100%30.00 "Hg2 mi
6:54 AM57 °FLight rain. Fog.17 mph100%29.99 "Hg4 mi
5:54 AM58 °FLight rain. Fog.13 mph97%30.00 "Hg3 mi
5:01 AM57 °FFog.12 mph100%30.02 "Hg3 mi
3:54 AM57 °FLight rain. Fog.8 mph96%30.02 "Hg5 mi
Weather by CustomWeather, © 2014

See weather overviewHow to use our weather pages